| time (UTC) | temp C | wind direction | speed KPH | gust KPH | rain 1hr cm | rain 24hr cm | rain mn cm | humidity % | barometer mb |
| 20260508165846 | 11 | 304 | 8.0 | 11.3 | 0.00 | 0.00 | 0.00 | 35 | 1012.2 |
| 20260508164844 | 11 | 306 | 4.8 | 12.9 | 0.00 | 0.00 | 0.00 | 34 | 1012.3 |
| 20260508164747 | 11 | 360 | 1.6 | 6.4 | 0.00 | 0.00 | 0.00 | 35 | 1012.3 |
| 20260508163745 | 10 | 221 | 11.3 | 19.3 | 0.00 | 0.00 | 0.00 | 34 | 1012.4 |
| 20260508161844 | 11 | 266 | 4.8 | 9.7 | 0.00 | 0.00 | 0.00 | 34 | 1012.3 |
| 20260508161744 | 11 | 249 | 9.7 | 17.7 | 0.00 | 0.00 | 0.00 | 34 | 1012.3 |
| 20260508154946 | 11 | 297 | 8.0 | 14.5 | 0.00 | 0.00 | 0.00 | 36 | 1012.0 |
| 20260508154900 | 11 | 331 | 6.4 | 9.7 | 0.00 | 0.00 | 0.00 | 36 | 1012.0 |
| 20260508151945 | 10 | 237 | 12.9 | 22.5 | 0.00 | 0.00 | 0.00 | 39 | 1012.4 |
| 20260508151901 | 10 | 280 | 6.4 | 14.5 | 0.00 | 0.00 | 0.00 | 38 | 1012.4 |
| 20260508150845 | 10 | 329 | 8.0 | 11.3 | 0.00 | 0.00 | 0.00 | 40 | 1012.4 |
| 20260508145846 | 10 | 326 | 4.8 | 6.4 | 0.00 | 0.00 | 0.00 | 41 | 1012.5 |
| 20260508145745 | 10 | 318 | 6.4 | 12.9 | 0.00 | 0.00 | 0.00 | 41 | 1012.4 |
| 20260508144746 | 10 | 248 | 6.4 | 9.7 | 0.00 | 0.00 | 0.00 | 43 | 1012.4 |
| 20260508144647 | 10 | 323 | 4.8 | 14.5 | 0.00 | 0.00 | 0.00 | 43 | 1012.4 |
| 20260508143644 | 10 | 310 | 9.7 | 12.9 | 0.00 | 0.00 | 0.00 | 44 | 1012.3 |
| 20260508143544 | 10 | 285 | 8.0 | 19.3 | 0.00 | 0.00 | 0.00 | 45 | 1012.4 |
| 20260508141546 | 9 | 290 | 6.4 | 11.3 | 0.00 | 0.00 | 0.00 | 47 | 1012.7 |
| 20260508140545 | 9 | 312 | 0.0 | 4.8 | 0.00 | 0.00 | 0.00 | 48 | 1012.7 |
| 20260508140445 | 9 | 321 | 8.0 | 11.3 | 0.00 | 0.00 | 0.00 | 47 | 1012.9 |
| 20260508135444 | 8 | 276 | 3.2 | 8.0 | 0.00 | 0.00 | 0.00 | 48 | 1012.9 |
| 20260508135344 | 8 | 348 | 1.6 | 3.2 | 0.00 | 0.00 | 0.00 | 48 | 1013.0 |
| 20260508134347 | 8 | 229 | 6.4 | 9.7 | 0.00 | 0.00 | 0.00 | 48 | 1013.2 |
| 20260508133345 | 8 | 281 | 8.0 | 14.5 | 0.00 | 0.00 | 0.00 | 50 | 1013.2 |
| 20260508132444 | 8 | 270 | 11.3 | 17.7 | 0.00 | 0.00 | 0.00 | 50 | 1013.2 |
| 20260508131445 | 7 | 261 | 6.4 | 14.5 | 0.00 | 0.00 | 0.00 | 51 | 1013.2 |
| 20260508131401 | 7 | 260 | 8.0 | 14.5 | 0.00 | 0.00 | 0.00 | 50 | 1013.2 |
| 20260508130443 | 7 | 335 | 6.4 | 11.3 | 0.00 | 0.00 | 0.00 | 51 | 1013.3 |
| 20260508125445 | 7 | 335 | 4.8 | 9.7 | 0.00 | 0.00 | 0.00 | 52 | 1013.3 |
| 20260508125344 | 7 | 265 | 4.8 | 9.7 | 0.00 | 0.00 | 0.00 | 52 | 1013.3 |
| 20260508124346 | 7 | 308 | 4.8 | 11.3 | 0.00 | 0.00 | 0.00 | 52 | 1013.3 |
| 20260508124245 | 7 | 269 | 6.4 | 16.1 | 0.00 | 0.00 | 0.00 | 52 | 1013.3 |
| 20260508123247 | 7 | 275 | 8.0 | 11.3 | 0.00 | 0.00 | 0.00 | 52 | 1013.2 |
| 20260508123145 | 7 | 242 | 9.7 | 20.9 | 0.00 | 0.00 | 0.00 | 53 | 1013.2 |
| 20260508122146 | 7 | 254 | 8.0 | 12.9 | 0.00 | 0.00 | 0.00 | 54 | 1013.2 |
| 20260508121146 | 7 | 333 | 4.8 | 12.9 | 0.00 | 0.00 | 0.00 | 55 | 1013.2 |
| 20260508120146 | 7 | 301 | 6.4 | 11.3 | 0.00 | 0.00 | 0.00 | 55 | 1013.2 |
| 20260508115147 | 6 | 275 | 4.8 | 11.3 | 0.00 | 0.00 | 0.00 | 56 | 1013.2 |
| 20260508114146 | 6 | 254 | 6.4 | 11.3 | 0.00 | 0.00 | 0.00 | 57 | 1013.0 |
| 20260508113201 | 6 | 262 | 1.6 | 4.8 | 0.00 | 0.00 | 0.00 | 57 | 1012.9 |
| 20260508111044 | 6 | 262 | 8.0 | 14.5 | 0.00 | 0.00 | 0.00 | 61 | 1012.8 |
| 20260508110946 | 6 | 249 | 8.0 | 16.1 | 0.00 | 0.00 | 0.00 | 62 | 1012.7 |
| 20260508110045 | 5 | 269 | 6.4 | 9.7 | 0.00 | 0.00 | 0.00 | 67 | 1012.6 |
| 20260508105944 | 5 | 326 | 4.8 | 9.7 | 0.00 | 0.00 | 0.00 | 68 | 1012.6 |
| 20260508104946 | 3 | 247 | 0.0 | 1.6 | 0.00 | 0.00 | 0.00 | 73 | 1012.5 |
| 20260508103945 | 2 | 149 | 0.0 | 3.2 | 0.00 | 0.00 | 0.00 | 74 | 1012.4 |
| 20260508102946 | 3 | 157 | 3.2 | 4.8 | 0.00 | 0.00 | 0.00 | 74 | 1012.3 |
| 20260508102844 | 3 | 189 | 3.2 | 4.8 | 0.00 | 0.00 | 0.00 | 74 | 1012.4 |
| 20260508101845 | 3 | 292 | 0.0 | 0.0 | 0.00 | 0.00 | 0.00 | 75 | 1012.2 |
| 20260508100847 | 3 | 8 | 1.6 | 3.2 | 0.00 | 0.00 | 0.00 | 77 | 1012.0 |
| 20260508095846 | 2 | 258 | 1.6 | 3.2 | 0.00 | 0.00 | 0.00 | 82 | 1012.0 |
| 20260508095744 | 2 | 302 | 3.2 | 4.8 | 0.00 | 0.00 | 0.00 | 83 | 1012.0 |
| 20260508094745 | 1 | 22 | 0.0 | 0.0 | 0.00 | 0.00 | 0.00 | 85 | 1011.9 |
| 20260508093843 | 1 | 337 | 0.0 | 0.0 | 0.00 | 0.00 | 0.00 | 84 | 1011.8 |
| 20260508092845 | 1 | 337 | 0.0 | 0.0 | 0.00 | 0.00 | 0.00 | 82 | 1011.8 |
| 20260508091846 | 1 | 225 | 0.0 | 0.0 | 0.00 | 0.00 | 0.00 | 80 | 1011.8 |
| 20260508090944 | 1 | 225 | 0.0 | 1.6 | 0.00 | 0.00 | 0.00 | 77 | 1011.8 |
| 20260508090844 | 1 | 225 | 0.0 | 0.0 | 0.00 | 0.00 | 0.00 | 77 | 1011.7 |
| 20260508090745 | 2 | 225 | 1.6 | 3.2 | 0.00 | 0.00 | 0.00 | 76 | 1011.6 |
| 20260508090647 | 2 | 206 | 0.0 | 3.2 | 0.00 | 0.00 | 0.00 | 76 | 1011.6 |
| 20260508085744 | 2 | 270 | 0.0 | 0.0 | 0.00 | 0.00 | 0.00 | 74 | 1011.6 |
| 20260508085644 | 2 | 270 | 0.0 | 0.0 | 0.00 | 0.00 | 0.00 | 74 | 1011.6 |
| 20260508084743 | 2 | 22 | 0.0 | 0.0 | 0.00 | 0.00 | 0.00 | 75 | 1011.6 |
| 20260508083744 | 2 | 337 | 0.0 | 0.0 | 0.00 | 0.00 | 0.00 | 78 | 1011.7 |
| 20260508082745 | 2 | 293 | 0.0 | 1.6 | 0.00 | 0.00 | 0.00 | 81 | 1011.5 |
| 20260508080744 | 0 | 180 | 0.0 | 0.0 | 0.00 | 0.00 | 0.00 | 86 | 1011.5 |
| 20260508074843 | 0 | 180 | 0.0 | 0.0 | 0.00 | 0.00 | 0.00 | 84 | 1011.1 |
| 20260508073845 | 0 | 180 | 0.0 | 0.0 | 0.00 | 0.00 | 0.00 | 83 | 1011.0 |
| 20260508072747 | 1 | 180 | 0.0 | 0.0 | 0.00 | 0.00 | 0.00 | 83 | 1011.0 |
| 20260508070744 | 1 | 180 | 0.0 | 1.6 | 0.00 | 0.00 | 0.00 | 83 | 1011.0 |
| 20260508064744 | 0 | 180 | 0.0 | 0.0 | 0.00 | 0.00 | 0.00 | 83 | 1011.0 |
| 20260508062744 | 1 | 180 | 0.0 | 0.0 | 0.00 | 0.00 | 0.00 | 79 | 1011.1 |
| 20260508061744 | 2 | 180 | 0.0 | 0.0 | 0.00 | 0.00 | 0.00 | 78 | 1011.2 |
| 20260508060745 | 2 | 180 | 0.0 | 0.0 | 0.00 | 0.00 | 0.00 | 78 | 1010.9 |
| 20260508055745 | 2 | 180 | 1.6 | 3.2 | 0.00 | 0.00 | 0.00 | 76 | 1011.2 |
| 20260508055646 | 2 | 180 | 3.2 | 3.2 | 0.00 | 0.00 | 0.00 | 76 | 1011.2 |
| 20260508054645 | 2 | 180 | 1.6 | 1.6 | 0.00 | 0.00 | 0.00 | 75 | 1011.4 |
| 20260508052645 | 2 | 180 | 3.2 | 3.2 | 0.00 | 0.00 | 0.00 | 75 | 1011.4 |
| 20260508051744 | 2 | 180 | 3.2 | 3.2 | 0.00 | 0.00 | 0.00 | 76 | 1011.6 |
| 20260508051644 | 2 | 180 | 3.2 | 4.8 | 0.00 | 0.00 | 0.00 | 76 | 1011.6 |
| 20260508050702 | 2 | 180 | 3.2 | 4.8 | 0.00 | 0.00 | 0.00 | 75 | 1011.7 |
| 20260508045646 | 3 | 180 | 1.6 | 3.2 | 0.00 | 0.00 | 0.00 | 74 | 1011.8 |
| 20260508044744 | 3 | 180 | 1.6 | 1.6 | 0.00 | 0.00 | 0.00 | 74 | 1011.8 |
| 20260508043743 | 3 | 180 | 3.2 | 3.2 | 0.00 | 0.00 | 0.00 | 74 | 1011.8 |
| 20260508042743 | 3 | 180 | 0.0 | 0.0 | 0.00 | 0.00 | 0.00 | 73 | 1011.8 |
| 20260508041746 | 3 | 180 | 1.6 | 3.2 | 0.00 | 0.00 | 0.00 | 73 | 1011.9 |
| 20260508040744 | 3 | 180 | 1.6 | 3.2 | 0.00 | 0.00 | 0.00 | 72 | 1012.1 |
| 20260508035826 | 3 | 180 | 3.2 | 3.2 | 0.00 | 0.00 | 0.00 | 73 | 1011.9 |
| 20260508034827 | 3 | 180 | 1.6 | 1.6 | 0.00 | 0.00 | 0.00 | 74 | 1012.1 |
| 20260508033827 | 4 | 180 | 1.6 | 1.6 | 0.00 | 0.00 | 0.00 | 74 | 1012.0 |
| 20260508032925 | 4 | 180 | 3.2 | 3.2 | 0.00 | 0.00 | 0.00 | 75 | 1012.2 |
| 20260508030942 | 5 | 180 | 0.0 | 0.0 | 0.00 | 0.00 | 0.00 | 73 | 1011.9 |
| 20260508030826 | 5 | 180 | 0.0 | 0.0 | 0.00 | 0.00 | 0.00 | 73 | 1011.9 |
| 20260508030727 | 5 | 180 | 0.0 | 0.0 | 0.00 | 0.00 | 0.00 | 73 | 1012.0 |
| 20260508025726 | 5 | 180 | 0.0 | 0.0 | 0.00 | 0.00 | 0.00 | 72 | 1011.9 |
| 20260508025626 | 5 | 180 | 0.0 | 0.0 | 0.00 | 0.00 | 0.00 | 72 | 1011.9 |
| 20260508024626 | 5 | 180 | 0.0 | 0.0 | 0.00 | 0.00 | 0.00 | 70 | 1011.9 |
| 20260508023627 | 6 | 180 | 0.0 | 0.0 | 0.00 | 0.00 | 0.00 | 67 | 1011.9 |
| 20260508022626 | 6 | 180 | 0.0 | 0.0 | 0.00 | 0.05 | 0.00 | 65 | 1011.9 |
| 20260508022525 | 6 | 180 | 0.0 | 0.0 | 0.00 | 0.05 | 0.00 | 65 | 1011.9 |
| 20260508021525 | 6 | 180 | 0.0 | 0.0 | 0.00 | 0.08 | 0.00 | 66 | 1011.8 |
| 20260508020528 | 6 | 180 | 0.0 | 0.0 | 0.00 | 0.08 | 0.00 | 65 | 1011.8 |
| 20260508014624 | 6 | 180 | 0.0 | 0.0 | 0.00 | 0.10 | 0.00 | 60 | 1011.5 |
| 20260508013626 | 6 | 180 | 0.0 | 0.0 | 0.00 | 0.10 | 0.00 | 58 | 1011.2 |
| 20260508012625 | 7 | 175 | 0.0 | 0.0 | 0.00 | 0.10 | 0.00 | 58 | 1011.1 |
| 20260508010626 | 7 | 315 | 0.0 | 1.6 | 0.00 | 0.13 | 0.00 | 53 | 1011.0 |
| 20260508005625 | 7 | 247 | 0.0 | 0.0 | 0.00 | 0.15 | 0.00 | 52 | 1011.0 |
| 20260508004625 | 8 | 266 | 1.6 | 3.2 | 0.00 | 0.18 | 0.00 | 49 | 1010.7 |
| 20260508003628 | 8 | 180 | 0.0 | 0.0 | 0.00 | 0.25 | 0.00 | 47 | 1010.8 |
| 20260508003527 | 8 | 180 | 0.0 | 0.0 | 0.00 | 0.25 | 0.00 | 47 | 1010.8 |
| 20260508003427 | 8 | 180 | 0.0 | 0.0 | 0.00 | 0.25 | 0.00 | 47 | 1010.8 |
| 20260508002525 | 9 | 180 | 0.0 | 0.0 | 0.00 | 0.25 | 0.00 | 45 | 1010.6 |
| 20260508001625 | 9 | 270 | 0.0 | 3.2 | 0.00 | 0.25 | 0.00 | 44 | 1010.5 |
| 20260508000626 | 10 | 22 | 0.0 | 0.0 | 0.00 | 0.25 | 0.00 | 42 | 1010.4 |
| 20260507235725 | 10 | 254 | 0.0 | 3.2 | 0.00 | 0.25 | 0.00 | 41 | 1010.3 |
| 20260507234727 | 10 | 268 | 3.2 | 4.8 | 0.00 | 0.25 | 0.00 | 40 | 1010.1 |
| 20260507233725 | 11 | 259 | 6.4 | 9.7 | 0.00 | 0.25 | 0.00 | 39 | 1010.1 |
| 20260507233625 | 11 | 326 | 3.2 | 4.8 | 0.00 | 0.25 | 0.00 | 39 | 1010.1 |
| 20260507232626 | 11 | 286 | 4.8 | 9.7 | 0.00 | 0.25 | 0.00 | 38 | 1010.2 |
| 20260507232527 | 11 | 301 | 3.2 | 8.0 | 0.00 | 0.25 | 0.00 | 39 | 1010.2 |
| 20260507231626 | 11 | 279 | 3.2 | 6.4 | 0.00 | 0.25 | 0.00 | 39 | 1010.1 |
| 20260507230626 | 11 | 327 | 3.2 | 6.4 | 0.00 | 0.25 | 0.00 | 39 | 1010.1 |
| 20260507225626 | 11 | 299 | 4.8 | 9.7 | 0.00 | 0.25 | 0.00 | 39 | 1010.1 |
| 20260507225529 | 11 | 328 | 4.8 | 9.7 | 0.00 | 0.25 | 0.00 | 39 | 1010.1 |
| 20260507224626 | 11 | 337 | 3.2 | 4.8 | 0.00 | 0.25 | 0.00 | 40 | 1010.1 |
| 20260507224525 | 11 | 337 | 1.6 | 3.2 | 0.00 | 0.25 | 0.00 | 40 | 1010.1 |
| 20260507224428 | 11 | 337 | 0.0 | 1.6 | 0.00 | 0.25 | 0.00 | 40 | 1010.1 |
| 20260507221425 | 11 | 331 | 3.2 | 4.8 | 0.00 | 0.25 | 0.00 | 38 | 1009.7 |
| 20260507220426 | 12 | 320 | 3.2 | 6.4 | 0.00 | 0.25 | 0.00 | 38 | 1009.7 |
| 20260507215525 | 12 | 327 | 1.6 | 4.8 | 0.00 | 0.25 | 0.00 | 37 | 1009.7 |
| 20260507215425 | 12 | 290 | 1.6 | 9.7 | 0.00 | 0.25 | 0.00 | 37 | 1009.6 |
| 20260507214426 | 12 | 271 | 4.8 | 11.3 | 0.00 | 0.25 | 0.00 | 37 | 1009.4 |
| 20260507213429 | 12 | 269 | 0.0 | 1.6 | 0.00 | 0.25 | 0.00 | 37 | 1009.5 |
| 20260507212427 | 12 | 330 | 4.8 | 9.7 | 0.00 | 0.25 | 0.00 | 37 | 1009.5 |
| 20260507211426 | 12 | 287 | 6.4 | 11.3 | 0.00 | 0.25 | 0.00 | 35 | 1009.4 |
| 20260507211326 | 12 | 272 | 8.0 | 14.5 | 0.00 | 0.25 | 0.00 | 36 | 1009.3 |
| 20260507210326 | 13 | 271 | 9.7 | 20.9 | 0.00 | 0.25 | 0.00 | 34 | 1009.5 |
| 20260507205425 | 13 | 261 | 11.3 | 20.9 | 0.00 | 0.25 | 0.00 | 34 | 1009.4 |
| 20260507204425 | 13 | 284 | 8.0 | 17.7 | 0.00 | 0.25 | 0.00 | 34 | 1009.2 |
| 20260507203427 | 13 | 276 | 9.7 | 17.7 | 0.00 | 0.25 | 0.00 | 34 | 1009.1 |
| 20260507203325 | 13 | 266 | 16.1 | 25.7 | 0.00 | 0.25 | 0.00 | 34 | 1009.1 |
| 20260507202326 | 13 | 359 | 6.4 | 12.9 | 0.00 | 0.25 | 0.00 | 34 | 1009.2 |
| 20260507195224 | 14 | 223 | 3.2 | 6.4 | 0.00 | 0.30 | 0.00 | 34 | 1009.3 |
| 20260507194225 | 15 | 329 | 4.8 | 9.7 | 0.00 | 0.30 | 0.00 | 36 | 1009.4 |
| 20260507193324 | 13 | 332 | 6.4 | 12.9 | 0.00 | 0.33 | 0.00 | 36 | 1009.4 |
| 20260507193226 | 13 | 311 | 4.8 | 12.9 | 0.00 | 0.33 | 0.00 | 37 | 1009.4 |
| 20260507192225 | 13 | 269 | 6.4 | 9.7 | 0.00 | 0.38 | 0.00 | 38 | 1009.6 |
| 20260507191324 | 13 | 293 | 8.0 | 14.5 | 0.00 | 0.43 | 0.00 | 37 | 1009.5 |
| 20260507191226 | 13 | 328 | 6.4 | 14.5 | 0.00 | 0.46 | 0.00 | 37 | 1009.7 |
| 20260507190124 | 13 | 341 | 4.8 | 9.7 | 0.00 | 0.48 | 0.00 | 37 | 1009.7 |
| 20260507185126 | 13 | 335 | 1.6 | 6.4 | 0.00 | 0.51 | 0.00 | 39 | 1009.8 |
| 20260507184126 | 13 | 251 | 6.4 | 14.5 | 0.00 | 0.51 | 0.00 | 39 | 1009.8 |
| 20260507183125 | 13 | 270 | 6.4 | 11.3 | 0.00 | 0.51 | 0.00 | 39 | 1009.9 |
| 20260507182126 | 13 | 277 | 9.7 | 14.5 | 0.00 | 0.53 | 0.00 | 38 | 1010.3 |
| 20260507181126 | 13 | 316 | 9.7 | 17.7 | 0.00 | 0.56 | 0.00 | 38 | 1010.2 |
| 20260507175226 | 12 | 278 | 8.0 | 14.5 | 0.00 | 0.61 | 0.00 | 39 | 1010.3 |
| 20260507175142 | 12 | 337 | 4.8 | 14.5 | 0.00 | 0.61 | 0.00 | 38 | 1010.2 |
| 20260507174228 | 12 | 266 | 11.3 | 16.1 | 0.00 | 0.64 | 0.00 | 37 | 1010.3 |
| 20260507173225 | 12 | 351 | 6.4 | 14.5 | 0.00 | 0.66 | 0.00 | 38 | 1010.3 |
| 20260507173125 | 12 | 336 | 3.2 | 6.4 | 0.00 | 0.66 | 0.00 | 38 | 1010.3 |
| 20260507172126 | 12 | 269 | 4.8 | 11.3 | 0.00 | 0.69 | 0.00 | 37 | 1010.3 |